KOREASAT 6A

Last updated on Mon Sep 07 2026 00:03:02 GMT+0000 (Coordinated Universal Time)

1 61910U 24206A 26249.65683115 -.00000378 00000+0 00000+0 0 9996 2 61910 0.0224 217.6471 0000760 314.5951 165.9827 1.00272342 6652
UTC large
Height (km)
Speed (km/s)
/
Latitude / Longitude
Inclination (degrees)
Orbital Period (minutes)
Azimuth
Elevation
Range (km)
Doppler Factor

Next 0 passes for location: London (51.5072 / 0.1276)

No passes found over London.
KOREASAT 6A